Notices

What's New in latest Release from April 7th, 2021:

- Updated Glossary, including Speed of Maximum Gust, and Total Hourly Precipitation

- Updated national and regional climate services offices contacts and prices information

- Addition of station inventory lists for 1981-2010, 1971-2000, and 1961-1990 Normals.

If you haven't already, please take our survey and provide feedback about our website: https://eccc.sondage-survey.ca/f/LanguageSelection.aspx?s=442ca660-fcf1-47c0-95a9-59707d6fd709

Hourly Data Report for December 19, 2019

SAINT JOHN A
NEW BRUNSWICK
Current Station Operator: NAVCAN

45°18'58.000" N
65°53'24.000" W
108.80 m
8104901
71609
YSJ

Download Data

Hourly Data (December 2019)
Hourly Data Report for December 19, 2019
TIME
LST
Temp Definition
°C
Dew Point Definition
°C
Rel Hum Definition
%
Precip. Amount Definition
mm

Wind Dir Definition
10's deg

Wind Spd Definition
km/h
Visibility Definition
km
Stn Press Definition
kPa
Hmdx Definition


Wind Chill Definition


Weather Definition


00:00 -9.9 -12.6 81   35 12 24.1 98.93   -16 LegendNANA
01:00 -9.9 -12.2 84   35 12 24.1 98.89   -16 LegendNANA
02:00 -9.9 -12.5 82   36 11 24.1 98.86   -15 Mainly Clear
03:00 -9.9 -12.8 80   35 11 24.1 98.89   -15 LegendNANA
04:00 -9.0 -11.8 80   1 16 24.1 98.87   -16 LegendNANA
05:00 -9.0 -11.9 80   36 19 24.1 98.92   -16 Cloudy
06:00 -9.3 -12.3 79   35 24 24.1 98.97   -18 LegendNANA
07:00 -9.7 -12.9 78   36 18 24.1 99.03   -17 LegendNANA
08:00 -10.3 -13.6 77   34 22 24.1 99.10   -19 Mainly Clear
09:00 -9.9 -14.0 72   32 21 24.1 99.19   -18 LegendNANA
10:00 -8.9 -14.7 63   33 36 24.1 99.25   -19 LegendNANA
11:00 -8.8 -15.0 61   31 30 24.1 99.28   -18 Mainly Clear
12:00 -8.8 -14.5 64   32 25 24.1 99.24   -17 LegendNANA
13:00 -9.3 -16.5 57   31 27 16.1 99.22   -18 LegendNANA
14:00 -9.7 -17.3 54   31 30 24.1 99.25   -19 Mostly Cloudy
15:00 -10.4 -18.0 54   29 27 24.1 99.31   -20 LegendNANA
16:00 -10.8 -17.9 56   30 29 24.1 99.40   -20 LegendNANA
17:00 -11.5 -19.2 53   31 30 24.1 99.50   -21 Mainly Clear
18:00 -12.1 -18.6 59   30 30 8.1 99.59   -22 Snow
19:00 -12.6 -19.5 57   30 20 24.1 99.65   -21 LegendNANA
20:00 -12.6 -18.8 60   30 30 24.1 99.70   -23 Mostly Cloudy
21:00 -12.8 -19.0 60   31 25 24.1 99.76   -22 LegendNANA
22:00 -13.1 -19.2 61   27 10 24.1 99.82   -19 LegendNANA
23:00 -13.2 -19.0 62   29 14 24.1 99.88   -20 Mostly Cloudy

Notes on Data Quality.

Legend

  • E = Estimated
  • M = Missing
  • NA = Not Available*
  • [empty] = Indicates an unobserved value
Date modified: